Starlink 11340

operational
NORAD ID: 61690 Int'l Des: 2024-195 Owner: SPXS Country: US Constellation: starlink
LEOCIRCULAR

About Starlink 11340

Description loading...

Live Position

Loading 3D Globe...

Upcoming Passes

Altitude History

Altitude vs Time

uPlot chart will show altitude changes over time

Two-Line Element Set

1 61690U 24195D 25303.31075706 .00001757 00000-0 19331-4 0 9996
2 61690 53.1586 309.1652 0001308 101.0601 259.0564 15.69744295 58555
Epoch: Oct 30, 2025 • Age: 17 hours

Current Status

Altitude 359.3 km
Velocity 7.70 km/s
Sub-Earth Point 13.51°N, 61.3°E
Launch Date Oct 30, 2024
Age 0.9 years
Type internet

Technical Details

Classification Payload
Mass 960.00 kg
Dry Mass 910.00 kg
Total Mass 960.00 kg
Length 0.30 m
Diameter 4.10 m
Span 29.00 m
Shape Box + pan
Manufacturer SPXS
Bus Type Starlink V2MD
Phase Status In Orbit
Owner/State SPXS/US

Large Constellations

Loading constellations...